When you browse on this site, cookies collect data to enhance your experience and personalize the content and advertising you see.
Visit our Privacy Policy to learn more. By continuing to use the site, you agree to this use of cookies and data.
  • In Sweden
  • List of Countries
  • For 7 days
  • Water Temperature
  • Satellite Maps
  • Weather Map
  • Weather Widgets
  • user-avatar
    Login

    Hourly Weather Bigadiç

    Today, 19 November, Monday

    Time Temperature Precipitation Wind Pressure Humidity
    00:00 +14°C° 0.1 mm 2 mps 742 mmHg 88%
    01:00 +13°C° 0.1 mm 3 mps 742 mmHg 88%
    02:00 +12°C° 0 mm 3 mps 742 mmHg 89%
    03:00 +12°C° 0 mm 3 mps 742 mmHg 89%
    04:00 +12°C° 0 mm 3 mps 742 mmHg 88%
    05:00 +12°C° 0 mm 3 mps 742 mmHg 88%
    06:00 +12°C° 0 mm 3 mps 742 mmHg 86%
    07:00 +13°C° 0 mm 3 mps 742 mmHg 84%
    08:00 +13°C° 0 mm 3 mps 742 mmHg 83%
    09:00 +15°C° 0 mm 5 mps 742 mmHg 75%
    10:00 +17°C° 0 mm 6 mps 742 mmHg 67%
    11:00 +20°C° 0 mm 7 mps 743 mmHg 59%
    12:00 +20°C° 0 mm 6 mps 743 mmHg 61%
    13:00 +19°C° 0 mm 6 mps 743 mmHg 62%
    14:00 +19°C° 0 mm 5 mps 743 mmHg 64%
    15:00 +19°C° 0.1 mm 4 mps 743 mmHg 68%
    16:00 +18°C° 0.1 mm 3 mps 743 mmHg 72%
    17:00 +17°C° 0.1 mm 3 mps 744 mmHg 76%
    18:00 +16°C° 0 mm 2 mps 744 mmHg 78%
    19:00 +16°C° 0 mm 2 mps 744 mmHg 80%
    20:00 +15°C° 0 mm 2 mps 745 mmHg 82%
    21:00 +15°C° 0 mm 2 mps 745 mmHg 84%
    22:00 +15°C° 0 mm 2 mps 746 mmHg 85%
    23:00 +14°C° 0 mm 2 mps 746 mmHg 86%

    Tomorrow, 20 November, Tuesday

    Time Temperature Precipitation Wind Pressure Humidity
    00:00 +14°C° 0 mm 2 mps 747 mmHg 87%
    01:00 +14°C° 0 mm 1 mps 747 mmHg 87%
    02:00 +14°C° 0 mm 1 mps 747 mmHg 88%
    03:00 +14°C° 0 mm 1 mps 747 mmHg 88%
    04:00 +14°C° 0 mm 1 mps 747 mmHg 88%
    05:00 +13°C° 0 mm 1 mps 747 mmHg 88%
    06:00 +14°C° 0 mm 1 mps 748 mmHg 87%
    07:00 +14°C° 0 mm 1 mps 748 mmHg 86%
    08:00 +14°C° 0 mm 1 mps 748 mmHg 85%
    09:00 +16°C° 0 mm 2 mps 748 mmHg 77%
    10:00 +18°C° 0 mm 2 mps 748 mmHg 69%
    11:00 +20°C° 0 mm 2 mps 748 mmHg 61%
    12:00 +20°C° 0 mm 3 mps 748 mmHg 59%
    13:00 +21°C° 0 mm 3 mps 747 mmHg 57%
    14:00 +21°C° 0 mm 3 mps 747 mmHg 55%
    15:00 +20°C° 0 mm 2 mps 747 mmHg 60%
    16:00 +19°C° 0 mm 2 mps 747 mmHg 64%
    17:00 +19°C° 0 mm 1 mps 747 mmHg 69%
    18:00 +19°C° 0 mm 1 mps 747 mmHg 70%
    19:00 +18°C° 0 mm 1 mps 746 mmHg 71%
    20:00 +18°C° 0 mm 1 mps 746 mmHg 71%
    21:00 +18°C° 0 mm 1 mps 746 mmHg 73%
    22:00 +18°C° 0 mm 1 mps 746 mmHg 74%
    23:00 +17°C° 0 mm 2 mps 746 mmHg 75%

    Day after tomorrow, 21 November, Wednesday

    Time Temperature Precipitation Wind Pressure Humidity
    00:00 +16°C° 0 mm 2 mps 746 mmHg 76%
    01:00 +16°C° 0 mm 1 mps 746 mmHg 77%
    02:00 +16°C° 0 mm 1 mps 745 mmHg 77%
    03:00 +16°C° 0 mm 2 mps 745 mmHg 79%
    04:00 +15°C° 0 mm 2 mps 744 mmHg 81%
    05:00 +15°C° 0 mm 2 mps 744 mmHg 83%
    06:00 +15°C° 0 mm 2 mps 744 mmHg 82%
    07:00 +15°C° 0 mm 2 mps 743 mmHg 81%
    08:00 +15°C° 0 mm 2 mps 743 mmHg 80%
    09:00 +17°C° 0 mm 3 mps 743 mmHg 73%
    10:00 +18°C° 0 mm 4 mps 743 mmHg 65%
    11:00 +20°C° 0 mm 5 mps 743 mmHg 58%
    12:00 +20°C° 0.2 mm 5 mps 742 mmHg 58%
    13:00 +20°C° 0.2 mm 5 mps 742 mmHg 58%
    14:00 +20°C° 0.2 mm 5 mps 741 mmHg 59%
    15:00 +19°C° 0.4 mm 4 mps 741 mmHg 65%
    16:00 +18°C° 0.4 mm 4 mps 741 mmHg 71%
    17:00 +17°C° 0.4 mm 3 mps 741 mmHg 77%
    18:00 +16°C° 0.3 mm 3 mps 741 mmHg 81%
    19:00 +16°C° 0.3 mm 2 mps 742 mmHg 85%
    20:00 +15°C° 0.3 mm 2 mps 742 mmHg 89%
    21:00 +15°C° 0.3 mm 2 mps 742 mmHg 90%
    22:00 +14°C° 0.3 mm 2 mps 742 mmHg 91%
    23:00 +14°C° 0.3 mm 2 mps 742 mmHg 92%

    22 November, Thursday

    Time Temperature Precipitation Wind Pressure Humidity
    00:00 +14°C° 0.2 mm 1 mps 742 mmHg 92%
    01:00 +14°C° 0.2 mm 1 mps 742 mmHg 92%
    02:00 +13°C° 0.2 mm 1 mps 742 mmHg 92%
    03:00 +13°C° 0.4 mm 1 mps 742 mmHg 92%
    04:00 +13°C° 0.4 mm 1 mps 742 mmHg 92%
    05:00 +13°C° 0.4 mm 1 mps 742 mmHg 92%
    06:00 +13°C° 0.2 mm 1 mps 743 mmHg 91%
    07:00 +14°C° 0.2 mm 1 mps 743 mmHg 90%
    08:00 +14°C° 0.2 mm 1 mps 744 mmHg 90%
    09:00 +14°C° 0.1 mm 1 mps 744 mmHg 86%
    10:00 +15°C° 0.1 mm 2 mps 744 mmHg 82%
    11:00 +16°C° 0.1 mm 2 mps 744 mmHg 78%
    12:00 +14°C° 0.2 mm 3 mps 744 mmHg 79%
    13:00 +14°C° 0.2 mm 4 mps 744 mmHg 80%
    14:00 +14°C° 0.2 mm 4 mps 744 mmHg 80%
    15:00 +13°C° 0.1 mm 4 mps 744 mmHg 83%
    16:00 +13°C° 0.1 mm 4 mps 744 mmHg 85%
    17:00 +12°C° 0.1 mm 4 mps 745 mmHg 87%
    18:00 +12°C° 0.1 mm 4 mps 745 mmHg 87%
    19:00 +11°C° 0.1 mm 4 mps 746 mmHg 87%
    20:00 +10°C° 0.1 mm 5 mps 746 mmHg 87%
    21:00 +11°C° 0 mm 4 mps 746 mmHg 86%
    22:00 +11°C° 0 mm 4 mps 747 mmHg 86%
    23:00 +10°C° 0 mm 4 mps 747 mmHg 86%

    23 November, Friday

    Time Temperature Precipitation Wind Pressure Humidity
    00:00 +10°C° 0.1 mm 4 mps 747 mmHg 86%
    01:00 +10°C° 0.1 mm 4 mps 747 mmHg 86%
    02:00 +10°C° 0.1 mm 4 mps 747 mmHg 86%
    03:00 +10°C° 0.1 mm 4 mps 748 mmHg 86%
    04:00 +8°C° 0.1 mm 4 mps 748 mmHg 86%
    05:00 +8°C° 0.1 mm 4 mps 748 mmHg 85%
    06:00 +8°C° 0 mm 5 mps 748 mmHg 84%
    07:00 +8°C° 0 mm 5 mps 749 mmHg 83%
    08:00 +8°C° 0 mm 5 mps 749 mmHg 81%
    09:00 +9°C° 0 mm 5 mps 749 mmHg 77%
    10:00 +9°C° 0 mm 5 mps 749 mmHg 73%
    11:00 +10°C° 0 mm 6 mps 749 mmHg 69%
    12:00 +10°C° 0 mm 6 mps 749 mmHg 68%
    13:00 +10°C° 0 mm 6 mps 749 mmHg 66%
    14:00 +10°C° 0 mm 6 mps 749 mmHg 65%
    15:00 +10°C° 0 mm 6 mps 749 mmHg 67%
    16:00 +9°C° 0 mm 6 mps 749 mmHg 70%
    17:00 +8°C° 0 mm 6 mps 749 mmHg 72%
    18:00 +8°C° 0 mm 5 mps 750 mmHg 75%
    19:00 +7°C° 0 mm 5 mps 750 mmHg 79%
    20:00 +7°C° 0 mm 5 mps 750 mmHg 82%
    21:00 +7°C° 0 mm 5 mps 750 mmHg 82%
    22:00 +6°C° 0 mm 5 mps 751 mmHg 82%
    23:00 +6°C° 0 mm 5 mps 751 mmHg 82%

    24 November, Saturday

    Time Temperature Precipitation Wind Pressure Humidity
    00:00 +6°C° 0 mm 5 mps 751 mmHg 82%
    01:00 +6°C° 0 mm 5 mps 750 mmHg 82%
    02:00 +6°C° 0 mm 4 mps 750 mmHg 82%
    03:00 +5°C° 0 mm 4 mps 750 mmHg 83%
    04:00 +5°C° 0 mm 4 mps 750 mmHg 84%
    05:00 +5°C° 0 mm 4 mps 750 mmHg 85%
    06:00 +5°C° 0 mm 4 mps 750 mmHg 84%
    07:00 +5°C° 0 mm 3 mps 751 mmHg 84%
    08:00 +5°C° 0 mm 3 mps 751 mmHg 83%
    09:00 +7°C° 0 mm 4 mps 751 mmHg 75%
    10:00 +8°C° 0 mm 5 mps 751 mmHg 68%
    11:00 +10°C° 0 mm 5 mps 751 mmHg 60%
    12:00 +10°C° 0 mm 6 mps 750 mmHg 57%
    13:00 +11°C° 0 mm 6 mps 750 mmHg 55%
    14:00 +11°C° 0 mm 6 mps 749 mmHg 53%
    15:00 +10°C° 0 mm 5 mps 749 mmHg 58%
    16:00 +9°C° 0 mm 5 mps 749 mmHg 64%
    17:00 +8°C° 0 mm 5 mps 750 mmHg 69%
    18:00 +7°C° 0 mm 4 mps 750 mmHg 74%
    19:00 +6°C° 0 mm 4 mps 750 mmHg 78%
    20:00 +7°C° 0 mm 3 mps 750 mmHg 83%
    21:00 +5°C° 0 mm 3 mps 750 mmHg 84%
    22:00 +5°C° 0 mm 3 mps 750 mmHg 86%
    23:00 +5°C° 0 mm 3 mps 751 mmHg 88%
    Show more